USA 40 R/B DEB, 23361

Orbit data source: Space-Track

USA 40 R/B DEB, 23361 is space debris originally from a launch on Tue, 08 Aug 1989 UTC launched from the Air Force Eastern Test Range (AFETR). Debris objects in space refer to the collection of defunct objects orbiting the Earth. Examples of debris include non-operational satellites, rocket bodies, and fragments generated from explosions, collisions, or faulty payload assembly.

Loading next visibility...
Identifier
23361, 1989-061AH
Orbit
Active
Country
Flag of USUS
Related business
Manufacturer
Unknown
Mission
Spacecraft
Bus & Motor
Unknown
Mass
Unknown
Launch date (UTC)
1989-08-08 (37 years ago)
Launch vehicle
Unknown
Launch site
Air Force Eastern Test Range (AFETR)
Object type
Payload
Rocket body
Debris
Shape & HBR
Unknown shape, 0.1 m
Radar Cross Section
Medium (>0.1 m² and <1 m²)

Expand to show TLE details & history
Last TLE update: 2 weeks ago

TLE from 2 weeks ago
0 USA 40 R/B DEB
1 23361U 89061AH  26160.48713098  .00002437  00000-0  12541-2 0  9995
2 23361  56.9737  97.1491 2694727 234.3037  97.6513  9.53920343 29598
Epoch: 2026-06-09T11:41Z
TLE epoch observation values (Epoch: 2026-06-09T11:41:28.116Z)
Latitude
-0.00002°
Longitude
23.92301°
Altitude
3,960.692 km
Speed
5.889 km/s
True Right ascension
06h 28m 35s
True Declination
0° 00' 00"
Sunlit
Object was in daylight at epoch
Visualization orbit readout
Latitude
Unknown
Longitude
Unknown
Altitude
Unknown
Speed
Unknown
Apparent Right ascension
Unknown
Apparent Declination
Unknown
Sunlit
N/A
Visualization observer readout
Local Sidereal Time
05:25:28
Azimuth
Unknown
Elevation
Unknown
Doppler factor
Unknown
Orbital elements
Apogee altitude
5,543.545 km
Perigee altitude
482.281 km
Semi-major axis
9,391.05 km
Eccentricity
0.26947
Inclination
56.9737°
RAAN
97.1491°
Arg. of periapsis
234.3037°
True anomaly
125.77818°
Mean anomaly
97.6513°
Eccentric anomaly
111.96974°
Mean motion
2.38491 °/min
Orbital period
150.95 mins
BSTAR
0.0012541
Loading maneuver chart data...
Computing Atmospheric mass density...
Loading historical data...
Loading historical data...
Loading historical data...
Loading historical data...
Loading historical data...
Loading historical data...
Loading historical data...

Documentation

Showing up to 5 results
|